Streamwood, IL (60107)

10:12 PM CDT on April 27, 2017 (GMT -0500)
Readers Apiaries | | Change Station

Elev 814 ft 42.01 °N, 88.17 °W | Updated 15 seconds ago

Partly Cloudy
Partly Cloudy
40.0 °F
Feels Like 40 °F
N
0.0
Wind Variable Wind from South

Today
High -- | Low -- °F
--% Chance of Precip.
Yesterday
High -- | Low -- °F
Precip. -- in
Pressure 29.84 in
Visibility 10.0 miles
Clouds Clear
Windchill 40 °F
Dew Point 36 °F
Humidity 86%
Rainfall 0.53 in
Snow Depth Not available.
5:53 AM 7:47 PM
Waxing Crescent, 4% visible
METAR KDPA 280252Z 21007KT 10SM CLR 04/03 A2982 RMK AO2 SLP103 T00440028 53015 $
Pressure 29.84 in
Visibility 10.0 miles
Clouds Clear
Windchill 40 °F
Dew Point 36 °F
Humidity 86%
Rainfall 0.53 in
Snow Depth Not available.
5:53 AM 7:47 PM
Waxing Crescent, 4% visible
METAR KDPA 280252Z 21007KT 10SM CLR 04/03 A2982 RMK AO2 SLP103 T00440028 53015 $

Get Severe Weather Alerts

Thanks for signing up!

Be on the lookout for a verification email in your inbox.

You'll start receiving the daily forecast at 8 AM.

×

10-Day Weather Forecast

Almanac

Astronomy

Apr. 27, 2017 Rise Set
Actual Time
Civil Twilight
Nautical Twilight
Astronomical Twilight
Moon
Length of Visible Light
Length of Day
Tomorrow will be .
, % of the Moon is Illuminated

Today's Extremes

State Highs State Lows

Community

WunderPhotos

WunderBlog® & News

Nearby

Air Quality

  Air Quality AQ Index Pollutant
Not available.

Snow Depth

Station Depth Elevation

Earthquake Activity

City Distance Mag. Time & Date
Minimum magnitude displayed is 2.5.

Coastal Water Temperatures

Place Temperature

Stations

Nearby Weather Stations

Station Location Temp. Windchill Dew Point Humidity Wind Precip. Elev Updated Type
                   

Watches & Warnings

There are currently no watches in effect.